• In Uzbekistan
  • List of Countries
  • For 7 days
  • Water Temperature
  • Satellite Maps
  • Weather Map
  • Weather Widgets
  • user-avatar
    Login

    Hourly Weather Kipungo

    Today, 22 January, Monday

    Time Temperature Precipitation Wind Pressure Humidity
    00:00 +18°C° 0.1 mm 2 mps 652 mmHg 92%
    01:00 +18°C° 0 mm 2 mps 652 mmHg 92%
    02:00 +19°C° 0.3 mm 1 mps 652 mmHg 93%
    03:00 +19°C° 0.3 mm 1 mps 652 mmHg 94%
    04:00 +18°C° 0.3 mm 1 mps 652 mmHg 95%
    05:00 +19°C° 0.3 mm 1 mps 652 mmHg 93%
    06:00 +19°C° 0.3 mm 1 mps 652 mmHg 92%
    07:00 +19°C° 0.3 mm 1 mps 653 mmHg 91%
    08:00 +21°C° 0.7 mm 1 mps 653 mmHg 86%
    09:00 +23°C° 0.7 mm 1 mps 654 mmHg 80%
    10:00 +24°C° 0.7 mm 1 mps 654 mmHg 75%
    11:00 +25°C° 1.3 mm 1 mps 654 mmHg 72%
    12:00 +26°C° 1.3 mm 1 mps 654 mmHg 69%
    13:00 +27°C° 0 mm 1 mps 653 mmHg 65%
    14:00 +27°C° 1.6 mm 1 mps 652 mmHg 67%
    15:00 +26°C° 1.6 mm 2 mps 652 mmHg 69%
    16:00 +26°C° 1.6 mm 2 mps 651 mmHg 71%
    17:00 +24°C° 0.9 mm 2 mps 651 mmHg 77%
    18:00 +23°C° 0.9 mm 1 mps 652 mmHg 82%
    19:00 +22°C° 0.9 mm 1 mps 652 mmHg 88%
    20:00 +21°C° 0.2 mm 1 mps 652 mmHg 89%
    21:00 +21°C° 0.2 mm 1 mps 652 mmHg 90%
    22:00 +21°C° 0.2 mm 1 mps 653 mmHg 91%
    23:00 +20°C° 0.3 mm 1 mps 653 mmHg 92%

    Tomorrow, 23 January, Tuesday

    Time Temperature Precipitation Wind Pressure Humidity
    00:00 +20°C° 0.3 mm 1 mps 652 mmHg 93%
    01:00 +20°C° 0.3 mm 1 mps 652 mmHg 94%
    02:00 +20°C° 0.1 mm 1 mps 652 mmHg 94%
    03:00 +20°C° 0.1 mm 1 mps 652 mmHg 95%
    04:00 +19°C° 0.1 mm 1 mps 651 mmHg 95%
    05:00 +20°C° 0 mm 1 mps 652 mmHg 94%
    06:00 +20°C° 0 mm 1 mps 652 mmHg 94%
    07:00 +20°C° 0 mm 1 mps 652 mmHg 93%
    08:00 +22°C° 0.6 mm 1 mps 653 mmHg 86%
    09:00 +24°C° 0.6 mm 1 mps 653 mmHg 79%
    10:00 +26°C° 0.6 mm 1 mps 654 mmHg 73%
    11:00 +27°C° 0.8 mm 1 mps 653 mmHg 68%
    12:00 +28°C° 0.8 mm 1 mps 653 mmHg 64%
    13:00 +29°C° 0.8 mm 1 mps 653 mmHg 59%
    14:00 +29°C° 1 mm 1 mps 652 mmHg 60%
    15:00 +28°C° 1 mm 1 mps 652 mmHg 61%
    16:00 +28°C° 1 mm 1 mps 651 mmHg 63%
    17:00 +26°C° 1.6 mm 2 mps 651 mmHg 70%
    18:00 +24°C° 1.6 mm 2 mps 651 mmHg 78%
    19:00 +21°C° 1.6 mm 2 mps 651 mmHg 85%
    20:00 +20°C° 0.5 mm 2 mps 651 mmHg 88%
    21:00 +20°C° 0.5 mm 2 mps 652 mmHg 90%
    22:00 +19°C° 0.5 mm 2 mps 652 mmHg 93%
    23:00 +19°C° 0.1 mm 2 mps 652 mmHg 94%

    Day after tomorrow, 24 January, Wednesday

    Time Temperature Precipitation Wind Pressure Humidity
    00:00 +19°C° 0.1 mm 2 mps 652 mmHg 95%
    01:00 +19°C° 0.1 mm 2 mps 651 mmHg 95%
    02:00 +19°C° 0.2 mm 2 mps 651 mmHg 96%
    03:00 +20°C° 0.2 mm 1 mps 651 mmHg 96%
    04:00 +20°C° 0.2 mm 1 mps 651 mmHg 96%
    05:00 +20°C° 0.3 mm 1 mps 652 mmHg 95%
    06:00 +20°C° 0.3 mm 1 mps 652 mmHg 95%
    07:00 +20°C° 0.3 mm 1 mps 652 mmHg 94%
    08:00 +22°C° 1.1 mm 1 mps 653 mmHg 89%
    09:00 +23°C° 1.1 mm 1 mps 654 mmHg 84%
    10:00 +24°C° 1.1 mm 1 mps 654 mmHg 79%
    11:00 +25°C° 1.3 mm 1 mps 654 mmHg 77%
    12:00 +25°C° 1.3 mm 2 mps 653 mmHg 76%
    13:00 +25°C° 1.3 mm 2 mps 653 mmHg 74%
    14:00 +25°C° 1.1 mm 2 mps 652 mmHg 75%
    15:00 +24°C° 1.1 mm 2 mps 652 mmHg 76%
    16:00 +24°C° 1.1 mm 1 mps 651 mmHg 77%
    17:00 +23°C° 0.2 mm 1 mps 651 mmHg 81%
    18:00 +22°C° 0.2 mm 1 mps 651 mmHg 84%
    19:00 +21°C° 0.2 mm 1 mps 651 mmHg 87%
    20:00 +21°C° 0.1 mm 1 mps 652 mmHg 87%
    21:00 +21°C° 0.1 mm 1 mps 652 mmHg 88%
    22:00 +20°C° 0.1 mm 1 mps 653 mmHg 88%
    23:00 +20°C° 0.3 mm 1 mps 652 mmHg 89%

    25 January, Thursday

    Time Temperature Precipitation Wind Pressure Humidity
    00:00 +20°C° 0.3 mm 1 mps 652 mmHg 90%
    01:00 +20°C° 0.3 mm 1 mps 652 mmHg 92%
    02:00 +20°C° 0.2 mm 1 mps 651 mmHg 92%
    03:00 +20°C° 0.2 mm 1 mps 651 mmHg 93%
    04:00 +19°C° 0.2 mm 1 mps 651 mmHg 93%
    05:00 +20°C° 0.1 mm 1 mps 651 mmHg 92%
    06:00 +20°C° 0.1 mm 1 mps 652 mmHg 91%
    07:00 +18°C° 0.1 mm 0 mps 652 mmHg 90%
    08:00 +19°C° 0.3 mm 0 mps 653 mmHg 85%
    09:00 +20°C° 0.3 mm 0 mps 653 mmHg 81%
    10:00 +22°C° 0.3 mm 0 mps 654 mmHg 76%
    11:00 +24°C° 0.7 mm 1 mps 654 mmHg 73%
    12:00 +25°C° 0.7 mm 1 mps 653 mmHg 70%
    13:00 +26°C° 0.7 mm 1 mps 653 mmHg 68%
    14:00 +25°C° 0.8 mm 1 mps 652 mmHg 71%
    15:00 +25°C° 0.8 mm 1 mps 652 mmHg 74%
    16:00 +24°C° 0.8 mm 1 mps 651 mmHg 78%
    17:00 +23°C° 0.4 mm 1 mps 651 mmHg 82%
    18:00 +21°C° 0.4 mm 2 mps 651 mmHg 86%
    19:00 +20°C° 0.4 mm 2 mps 651 mmHg 90%
    20:00 +20°C° 0.3 mm 2 mps 652 mmHg 91%
    21:00 +19°C° 0.3 mm 2 mps 652 mmHg 91%
    22:00 +19°C° 0.3 mm 2 mps 652 mmHg 92%
    23:00 +19°C° 0.2 mm 2 mps 652 mmHg 92%

    26 January, Friday

    Time Temperature Precipitation Wind Pressure Humidity
    00:00 +19°C° 0.2 mm 1 mps 652 mmHg 93%
    01:00 +19°C° 0.2 mm 1 mps 651 mmHg 93%
    02:00 +19°C° 0 mm 1 mps 651 mmHg 93%
    03:00 +19°C° 0 mm 1 mps 651 mmHg 93%
    04:00 +19°C° 0 mm 1 mps 651 mmHg 93%
    05:00 +20°C° 0 mm 1 mps 651 mmHg 92%
    06:00 +20°C° 0 mm 1 mps 652 mmHg 90%
    07:00 +20°C° 0 mm 1 mps 653 mmHg 89%
    08:00 +23°C° 0.1 mm 1 mps 653 mmHg 80%
    09:00 +23°C° 0.1 mm 0 mps 654 mmHg 71%
    10:00 +25°C° 0.1 mm 0 mps 655 mmHg 62%
    11:00 +28°C° 0.2 mm 1 mps 654 mmHg 58%
    12:00 +29°C° 0.2 mm 1 mps 654 mmHg 54%
    13:00 +30°C° 0.2 mm 1 mps 653 mmHg 50%
    14:00 +30°C° 0.2 mm 1 mps 652 mmHg 50%
    15:00 +30°C° 0.2 mm 1 mps 652 mmHg 50%
    16:00 +30°C° 0.2 mm 1 mps 651 mmHg 50%
    17:00 +28°C° 0.1 mm 1 mps 651 mmHg 56%
    18:00 +26°C° 0.1 mm 1 mps 651 mmHg 62%
    19:00 +24°C° 0.1 mm 1 mps 651 mmHg 69%
    20:00 +24°C° 0 mm 1 mps 652 mmHg 72%
    21:00 +23°C° 0 mm 1 mps 652 mmHg 75%
    22:00 +21°C° 0 mm 2 mps 652 mmHg 79%
    23:00 +21°C° 0 mm 2 mps 651 mmHg 80%

    27 January, Saturday

    Time Temperature Precipitation Wind Pressure Humidity
    00:00 +21°C° 0 mm 1 mps 651 mmHg 82%
    01:00 +21°C° 0 mm 1 mps 651 mmHg 83%
    02:00 +20°C° 0 mm 1 mps 651 mmHg 85%
    03:00 +20°C° 0 mm 1 mps 650 mmHg 86%
    04:00 +20°C° 0 mm 1 mps 650 mmHg 87%
    05:00 +20°C° 0 mm 1 mps 651 mmHg 87%
    06:00 +21°C° 0 mm 1 mps 652 mmHg 86%
    07:00 +21°C° 0 mm 1 mps 652 mmHg 86%
    08:00 +23°C° 0.4 mm 1 mps 653 mmHg 77%
    09:00 +26°C° 0.4 mm 1 mps 653 mmHg 68%
    10:00 +28°C° 0.4 mm 1 mps 654 mmHg 59%
    11:00 +29°C° 0.1 mm 1 mps 654 mmHg 54%
    12:00 +31°C° 0.1 mm 1 mps 653 mmHg 49%
    13:00 +32°C° 0.1 mm 1 mps 653 mmHg 44%
    14:00 +32°C° 0.1 mm 1 mps 653 mmHg 47%
    15:00 +31°C° 0.1 mm 1 mps 652 mmHg 49%
    16:00 +30°C° 0.1 mm 2 mps 651 mmHg 51%
    17:00 +28°C° 0.1 mm 1 mps 651 mmHg 58%
    18:00 +26°C° 0.1 mm 1 mps 651 mmHg 64%
    19:00 +25°C° 0.1 mm 1 mps 651 mmHg 71%
    20:00 +24°C° 0.6 mm 1 mps 652 mmHg 74%
    21:00 +23°C° 0.6 mm 1 mps 652 mmHg 78%
    22:00 +22°C° 0.6 mm 1 mps 652 mmHg 82%
    23:00 +22°C° 0.3 mm 1 mps 652 mmHg 85%
    Show more